Location: Bald Rock
(37.3738°N, 119.9354°W)
Time: 22:59:36
(UTC+00:00)

IRAS Rocket - Pass Details

Date: 08 September 2024
Orbit: 846 x 877 km, 100.1° (Epoch: 12 October)

Event Time Altitude Azimuth Distance (km) Brightness Sun altitude
Rises 11:58:19 0° 10° (N) 3,462 7.9 -19.6°
Reaches altitude 10° 12:00:44 10° 7° (N) 2,516 7.0 -19.2°
Maximum altitude 12:06:14 61° 289° (WNW) 972 4.3 -18.1°
Enters shadow 12:09:39 23° 216° (SW) 1,744 5.4 -17.5°
